Weather History for KFRG - June, 2013

Change the Weather History Date:

Tuesday, June 11, 2013

  Actual Average Record
Temperature  
Mean Temperature 72 °F -  
Max Temperature 79 °F 72 °F 91 °F (2000)
Min Temperature 64 °F 57 °F 52 °F (2006)
Cooling Degree Days 6    
Growing Degree Days 22 (Base 50)    
Moisture  
Dew Point 65 °F    
Average Humidity 86    
Maximum Humidity 100    
Minimum Humidity 60    
Precipitation  
Precipitation 0.52 in - - ()
Sea Level Pressure  
Sea Level Pressure 29.74 in    
Wind  
Wind Speed 11 mph (SW)    
Max Wind Speed 17 mph    
Max Gust Speed 24 mph    
Visibility 7 miles    
Events Rain , Thunderstorm    
Averages and records for this station are not official NWS values.
T = Trace of Precipitation, MM = Missing Value Source: NWS Daily Summary

Daily Weather History Graph

Daily Weather History Graph

Search for Another Location

Airport or City:

Trip Planner

Search our weather history database for the weather conditions in past years. The results will help you decide how hot, cold, wet, or windy it might be!

Date:

Astronomy

Jun. 11, 2013 Rise Set
Actual Time 5:21 AM EDT 8:25 PM EDT
Civil Twilight 4:48 AM EDT 8:58 PM EDT
Nautical Twilight 4:06 AM EDT 9:40 PM EDT
Astronomical Twilight 3:16 AM EDT 10:30 PM EDT
Moon 8:03 AM EDT (6/11) 10:25 PM EDT (6/11)
Length of Visible Light 16h 09m
Length of Day
15h 03m
Waxing Crescent, 8% of the Moon is Illuminated
Jun 11
Waxing Crescent
Jun 16
First Quarter
Jun 23
Full
Jun 30
Last Quarter
Jul 8
New

Hourly Weather History & Observations

Time (EDT) Temp. Dew Point Humidity Pressure Visibility Wind Dir Wind Speed Gust Speed Precip Events Conditions
12:04 AM 66.2 °F 66.2 °F 100% 29.85 in 1.2 mi SSW 9.2 mph - N/A   Overcast
12:20 AM 66.2 °F 66.2 °F 100% 29.85 in 3.0 mi SW 9.2 mph 17.3 mph 0.00 in   Overcast
12:29 AM 66.2 °F 66.2 °F 100% 29.84 in 2.5 mi SSW 11.5 mph - 0.03 in Rain , Thunderstorm Heavy Rain
12:36 AM 66.2 °F 66.2 °F 100% 29.83 in 3.0 mi SSW 10.4 mph - 0.06 in Rain , Thunderstorm Rain
12:40 AM 66.2 °F 66.2 °F 100% 29.81 in 1.8 mi South 8.1 mph - 0.24 in Rain , Thunderstorm Heavy Rain
12:43 AM 66.2 °F 66.2 °F 100% 29.82 in 1.2 mi SSW 9.2 mph - 0.30 in Rain Heavy Rain
12:50 AM 66.2 °F 66.2 °F 100% 29.81 in 1.8 mi South 11.5 mph - 0.36 in Rain Heavy Rain
12:53 AM 66.0 °F 66.0 °F 100% 29.81 in 3.0 mi South 13.8 mph 19.6 mph 0.37 in Rain Rain
1:15 AM 66.2 °F 66.2 °F 100% 29.81 in 2.5 mi SSW 15.0 mph - 0.04 in Rain Light Rain
1:25 AM 66.2 °F 66.2 °F 100% 29.81 in 1.2 mi SSW 15.0 mph 24.2 mph 0.04 in   Overcast
1:53 AM 66.0 °F 66.0 °F 100% 29.79 in 1.2 mi SW 12.7 mph 20.7 mph 0.04 in Rain Light Rain
2:10 AM 66.2 °F 66.2 °F 100% 29.79 in 2.0 mi SSW 12.7 mph - 0.00 in Rain Light Rain
2:28 AM 66.2 °F 66.2 °F 100% 29.78 in 1.8 mi SSW 12.7 mph - 0.00 in Rain Light Rain
2:35 AM 66.2 °F 64.4 °F 94% 29.78 in 2.5 mi SSW 13.8 mph 23.0 mph 0.00 in   Overcast
2:43 AM 66.2 °F 66.2 °F 100% 29.78 in 4.0 mi SSW 13.8 mph - 0.00 in Rain Light Rain
2:53 AM 66.0 °F 66.0 °F 100% 29.77 in 6.0 mi SSW 11.5 mph - 0.00 in   Overcast
3:15 AM 66.2 °F 64.4 °F 94% 29.76 in 6.0 mi SSW 16.1 mph 23.0 mph 0.00 in Rain Light Rain
3:53 AM 64.9 °F 64.9 °F 100% 29.74 in 6.0 mi SSW 15.0 mph 24.2 mph 0.00 in   Overcast
4:53 AM 64.9 °F 64.9 °F 100% 29.75 in 7.0 mi SW 11.5 mph - N/A   Overcast
5:53 AM 64.9 °F 64.9 °F 100% 29.74 in 7.0 mi SW 8.1 mph - N/A   Mostly Cloudy
6:20 AM 66.2 °F 64.4 °F 94% 29.74 in 7.0 mi SW 8.1 mph - N/A   Mostly Cloudy
6:53 AM 66.0 °F 64.9 °F 96% 29.75 in 8.0 mi WSW 6.9 mph - N/A   Mostly Cloudy
7:04 AM 66.2 °F 66.2 °F 100% 29.75 in 8.0 mi WSW 5.8 mph - N/A   Overcast
7:40 AM 68.0 °F 66.2 °F 94% 29.75 in 9.0 mi SW 8.1 mph - N/A   Overcast
7:53 AM 69.1 °F 66.9 °F 93% 29.75 in 10.0 mi WSW 13.8 mph 19.6 mph N/A   Overcast
8:02 AM 69.8 °F 66.2 °F 88% 29.75 in 10.0 mi WSW 9.2 mph - N/A   Overcast
8:53 AM 71.1 °F 68.0 °F 90% 29.74 in 10.0 mi WSW 9.2 mph - N/A   Mostly Cloudy
9:53 AM 73.0 °F 66.0 °F 79% 29.73 in 10.0 mi West 15.0 mph - N/A   Mostly Cloudy
10:45 AM 75.2 °F 64.4 °F 69% 29.73 in 10.0 mi WSW 13.8 mph - N/A   Mostly Cloudy
10:53 AM 75.0 °F 64.0 °F 69% 29.73 in 10.0 mi West 11.5 mph - N/A   Overcast
11:53 AM 78.1 °F 64.9 °F 64% 29.71 in 10.0 mi SW 11.5 mph 20.7 mph N/A   Scattered Clouds
12:53 PM 77.0 °F 64.9 °F 66% 29.70 in 10.0 mi SSW 17.3 mph 21.9 mph N/A   Mostly Cloudy
1:53 PM 79.0 °F 64.9 °F 62% 29.67 in 10.0 mi SSW 13.8 mph 21.9 mph N/A   Clear
2:53 PM 77.0 °F 64.0 °F 64% 29.66 in 10.0 mi SSW 12.7 mph 21.9 mph N/A   Partly Cloudy
3:53 PM 73.9 °F 66.0 °F 76% 29.64 in 10.0 mi SW 11.5 mph - 0.01 in   Mostly Cloudy
4:27 PM 71.6 °F 64.4 °F 78% 29.64 in 1.8 mi WSW 8.1 mph - 0.10 in Rain Heavy Rain
4:36 PM 73.4 °F 66.2 °F 78% 29.64 in 4.0 mi West 5.8 mph - 0.10 in Rain Light Rain
4:53 PM 73.9 °F 66.9 °F 79% 29.63 in 10.0 mi SW 4.6 mph - 0.10 in   Overcast
5:53 PM 78.1 °F 63.0 °F 60% 29.61 in 10.0 mi West 17.3 mph 23.0 mph N/A   Mostly Cloudy
6:53 PM 78.1 °F 63.0 °F 60% 29.61 in 10.0 mi WSW 15.0 mph 23.0 mph N/A   Overcast
7:15 PM 71.6 °F 62.6 °F 73% 29.63 in 10.0 mi NW 8.1 mph 19.6 mph N/A   Overcast
7:53 PM 73.9 °F 61.0 °F 64% 29.63 in 10.0 mi WNW 10.4 mph 20.7 mph N/A   Overcast
8:53 PM 73.0 °F 62.1 °F 68% 29.65 in 10.0 mi NW 4.6 mph - N/A   Scattered Clouds
9:53 PM 73.0 °F 60.1 °F 64% 29.68 in 10.0 mi WNW 10.4 mph 19.6 mph N/A   Clear
10:53 PM 71.1 °F 59.0 °F 66% 29.70 in 10.0 mi WNW 12.7 mph 23.0 mph N/A   Partly Cloudy
11:53 PM 70.0 °F 57.9 °F 65% 29.70 in 10.0 mi WNW 12.7 mph 20.7 mph N/A   Clear